Location: B�rgermoos
(47.6500°N, 9.0667°E)
Time: 08:11:29
(UTC+00:00)

A-11 Canister half - Pass Details

Date: 03 August 2021
Orbit: 1526 x 1683 km, 47.3° (Epoch: 20 September)

Event Time Altitude Azimuth Distance (km) Brightness Sun altitude
Rises 09:24:13 0° 214° (SSW) 4,918 11.7 50.3°
Reaches altitude 10° 09:27:34 10° 208° (SSW) 3,937 11.4 50.7°
Maximum altitude 09:36:51 43° 141° (SE) 2,227 12.3 51.9°
Drops below altitude 10° 09:46:03 10° 75° (ENE) 3,910 11.5 53.0°
Sets 09:49:22 0° 69° (ENE) 4,882 11.8 53.4°
